Regional Weather Roundup
Issued by NWS

Home | Current Version | Previous Version | Graphics & Text | Print | Product List | Glossary On
Versions: 1 2 3 4 5 6 7 8 9 10 11 12 13 14 15 16 17 18 19 20 21 22 23 24 25 26 27 28 29 30 31 32 33 34 35 36 37 38 39 40 41 42 43 44 45 46 47 48 49 50
000
ASUS43 KMKX 030759
RWRWI

WISCONSIN REGIONAL WEATHER ROUNDUP
NATIONAL WEATHER SERVICE MILWAUKEE/SULLIVAN WI
200 AM CST TUE MAR 03 2015

NOTE: "FAIR" INDICATES FEW OR NO CLOUDS BELOW 12,000 FEET WITH NO
SIGNIFICANT WEATHER AND/OR OBSTRUCTIONS TO VISIBILITY.

WIZ001-002-006>008-014>016-023>028-030900-
NORTHWEST WISCONSIN

CITY           SKY/WX    TMP DP  RH WIND       PRES   REMARKS
SUPERIOR ARPT  CLOUDY    22   8  53 S8        29.95F WCI  13
ASHLAND        CLOUDY    23   6  48 S12       29.98F WCI  12
HAYWARD        CLOUDY    21   6  52 S10       29.95F WCI  10
SIREN          FLURRIES  22  11  63 S12       29.97F WCI  10
CUMBERLAND     LGT SNOW  19  14  79 S7        29.98F WCI  10
RICE LAKE      LGT SNOW  19  16  88 SE7       30.00F WCI  10
CHETEK         LGT SNOW  19  16  88 SE5       30.01F WCI  12
LADYSMITH      LGT SNOW  21  17  83 S7        30.02F WCI  12
EAU CLAIRE     NOT AVBL
MENOMONIE      CLOUDY    21  17  83 E6        30.01F WCI  14
NEW RICHMOND   CLOUDY    20  13  73 SE6       29.98F WCI  13
OSCEOLA        LGT SNOW  20  17  88 SE9       29.99F WCI   9
$$

WIZ003>005-009-010-017-018-030900-
NORTH CENTRAL WISCONSIN

CITY           SKY/WX    TMP DP  RH WIND       PRES   REMARKS
MANITOWISH WTR CLOUDY    17   4  57 S7        29.98F WCI   8
ARBOR VITAE    CLOUDY    22   9  57 S12       29.99F WCI  10
WOODRUFF       CLOUDY    22   9  57 S12       29.99F WCI  10
RHINELANDER    NOT AVBL
EAGLE RIVER    CLOUDY    19   3  51 S5        30.00F WCI  12
LAND O LAKES   CLOUDY    19   4  54 S5        29.99F WCI  12
PHILLIPS       CLOUDY    20   9  60 S7        29.98F WCI  11
TOMAHAWK       CLOUDY    20   8  59 CALM      30.03F
MEDFORD        LGT SNOW  19  16  86 S9        30.01F WCI   8
MERRILL        CLOUDY    22  10  60 S7        30.04F WCI  14
$$

WIZ029-030-035-036-043>047-030900-
CENTRAL WISCONSIN

CITY           SKY/WX    TMP DP  RH WIND       PRES   REMARKS
WAUSAU         FLURRIES  20  17  88 S7        30.04F WCI  11
MOSINEE        FLURRIES  21  19  93 S9        30.07F WCI  11
MARSHFIELD     CLOUDY    21  16  81 SE6       30.03F WCI  13
STEVENS POINT  CLOUDY    19  16  86 SE3       30.08F
WAUPACA        CLOUDY    24  18  78 SE3       30.13F
WAUTOMA        NOT AVBL
WISC RAPIDS    CLOUDY    22  12  65 SE6       30.07F WCI  14
CAMP DOUGLAS   NOT AVBL
$$

WIZ011>013-019>022-031-037>040-048>050-030900-
NORTHEAST WISCONSIN

CITY           SKY/WX    TMP DP  RH WIND       PRES   REMARKS
ANTIGO         CLOUDY    19  11  71 S9        30.05F WCI   8
SHAWANO        CLOUDY    26  14  62 S8        30.13F WCI  17
OCONTO         CLOUDY    23  16  73 S6        30.14F WCI  16
STURGEON BAY   CLOUDY    25  16  68 S10G16    30.15F WCI  15
GREEN BAY      LGT SNOW  23  20  88 S9        30.14F VSB 1   WCI  13
MANITOWOC      LGT SNOW  25  21  86 S6        30.17F FOG     WCI  18
APPLETON       LGT SNOW  23  19  86 S6        30.13F WCI  16
CLINTONVILLE   LGT SNOW  23  19  86 S6        30.11F WCI  16
OSHKOSH        CLOUDY    24  16  71 SE6       30.11F WCI  17
$$

WIZ032>034-041-042-053>061-030900-
SOUTHWEST WISCONSIN

CITY           SKY/WX    TMP DP  RH WIND       PRES   REMARKS
LA CROSSE      CLOUDY    26  15  63 SE6       30.03F WCI  19
SPARTA         CLOUDY    24  15  69 SE7       30.05F WCI  16
VIROQUA        CLOUDY    22  17  78 SE9       30.02F WCI  12
BOSCOBEL       CLOUDY    26  17  68 CALM      30.06F
PRAIRIE DU CHI CLOUDY    25  16  69 SE8       30.05F WCI  16
PLATTEVILLE    CLOUDY    24  19  80 E9        30.03F WCI  15
$$

WIZ056-057-062-063-064-067-068-030900-
SOUTH CENTRAL WISCONSIN

CITY           SKY/WX    TMP DP  RH WIND       PRES   REMARKS
REEDSBURG      CLOUDY    23  16  74 SE3       30.07F
BARABOO/DELLS  CLOUDY    23  16  75 SE8       30.07F WCI  14
LONE ROCK      NOT AVBL
MINERAL POINT  CLOUDY    27  19  74 SE9       30.04F WCI  17
MADISON        CLOUDY    24  14  65 SE8       30.08F WCI  15
MIDDLETON      CLOUDY    26  16  67 SE7       30.09F WCI  18
WATERTOWN      CLOUDY    24  17  73 SE5       30.14F WCI  18
MONROE         CLOUDY    23  19  86 SE12      30.06F WCI  12
JANESVILLE     CLOUDY    27  18  69 SE8       30.12F WCI  18
$$

WIZ051-052-058>065-066-070>072-030900-
SOUTHEAST WISCONSIN

CITY           SKY/WX    TMP DP  RH WIND       PRES   REMARKS
MILWAUKEE      CLOUDY    25  16  68 S3        30.16F
WAUKESHA       CLOUDY    23  14  68 SE9       30.16F WCI  13
MILWAUKEE/TIMM CLOUDY    27  16  63 S6        30.17F WCI  20
RACINE         CLOUDY    27  16  63 S6        30.18F WCI  20
BURLINGTON     CLOUDY    24  15  68 SE5       30.16F WCI  18
KENOSHA        CLOUDY    26  15  63 SE8       30.15F WCI  18
FOND DU LAC    CLOUDY    24  15  68 S9        30.12F WCI  14
SHEBOYGAN      CLOUDY    22  19  89 CALM      30.15F
WEST BEND      CLOUDY    25  16  68 CALM      30.15F
JUNEAU         CLOUDY    23  16  74 SE9       30.14F WCI  13
$$

LSZ147-162-030900-
LAKE SUPERIOR

STATION/POSITION TIME  TEMP    WIND        PRES    WAVE
                       AIR SEA DIR/SP/G            HT/PER
                 (UTC) (F)     (DEG/KT/KT) (MB)    (FT/S)
DEVILS ISLAND    0700   21     180/  5/  6 1016.9F
PORT WING        0740   24     190/ 12/ 17 1014.6F
SAXON HARBOR     0700   24     190/  7/ 11 1015.9F
$$

LMZ867-665-643>646-030900-
LAKE MICHIGAN

STATION/POSITION TIME  TEMP    WIND        PRES    WAVE
                       AIR SEA DIR/SP/G            HT/PER
                 (UTC) (F)     (DEG/KT/KT) (MB)    (FT/S)
NORTHPORT PIER   0703   24     180/  3/  9 1021.0F
SISTER BAY       0743   24     200/ 10/ 14   N/A
KEWAUNEE LAKESHO 0700          200/ 10/ 12   N/A
SHEBOYGAN LAKESH 0700   24     230/  4/  5 1023.6F
PORT WASHINGTON  0700   26     200/  3/  6 1023.0F
MILWAUKEE LAKESH 0700   26     200/  6/  8   N/A
KENOSHA   LAKESH 0700   28     190/  7/ 12 1022.7F
$$

TC  - TEMPERATURE IN CELSIUS
VSB - VISIBILITY IN STATUTE MILES
WCI - WIND CHILL INDEX
HX  - HEAT INDEX




USA.gov is the U.S. government's official web portal to all federal, state and local government web resources and services.